Location: *
(43.6794°N, 81.3017°W)
Time: 03:24:51
(UTC+00:00)

Daily predictions for brighter satellites

Satellite Brightness Start Highest point End
(mag) Time Altitude Azimuth Time Altitude Azimuth Time Altitude Azimuth
SJ-7 4.0 00:02:17 10° SSE 00:05:57 86° ENE 00:09:38 10° NNW
Cosmos 1943 4.5 00:03:43 10° N 00:08:02 21° NE 00:09:46 19° ENE
ARIANE 6 FM1 Upper Stage 3.2 00:05:26 10° NNW 00:09:07 36° NE 00:10:52 24° E
Cosmos 1816 Rocket 4.4 00:05:57 10° S 00:12:00 64° E 00:18:10 10° NNE
Cosmos 2084 3.5 00:08:14 10° SSW 00:12:16 50° ESE 00:14:47 21° NE
DNEPR-1 R/B 4.1 00:12:16 10° NW 00:17:20 87° SW 00:23:30 10° SSE
Cosmos 2344 3.5 00:09:57 10° SSW 00:18:03 70° ESE 00:25:11 10° NE
SPOT 5 3.7 00:20:30 25° E 00:22:05 30° ENE 00:26:31 10° N
Cosmos 2219 3.4 00:17:01 10° S 00:22:30 48° ESE 00:27:59 10° NE
CARTOSAT-1 3.7 00:18:36 10° S 00:22:47 73° WSW 00:27:00 10° NNW
MINOTAUR IV R/B 4.4 00:19:22 10° SSW 00:23:43 66° ESE 00:27:54 11° NNE
Cosmos 2034 Rocket 4.0 00:17:47 10° N 00:23:54 59° ENE 00:30:03 10° SSE
Cosmos 1782 2.4 00:20:53 10° N 00:24:28 87° E 00:28:02 10° S
Cosmos 2263 Rocket 2.1 00:19:23 10° SSW 00:25:03 80° ESE 00:30:46 10° NNE
IRAS Rocket 4.2 00:21:44 10° SSE 00:27:17 67° ENE 00:32:52 10° N
Cosmos 1634 Rocket 4.5 00:22:18 10° N 00:28:06 36° ENE 00:31:56 19° SE
Cosmos 2150 Rocket 4.4 00:23:05 10° NNW 00:28:09 62° WSW 00:33:11 10° S
Radarsat Rocket 4.5 00:25:31 10° S 00:31:19 63° WSW 00:37:38 10° NNW
PSLV R/B 4.1 00:28:09 10° S 00:32:11 56° W 00:36:12 10° NNW
NOSS 3-4 (C) 4.5 00:28:22 10° NW 00:35:14 59° WSW 00:43:13 10° SSE
Resurs 01 Rocket 1.9 00:32:37 10° S 00:36:59 70° WSW 00:41:24 10° NNW
Cosmos 1862 2.8 00:33:37 10° S 00:37:11 84° E 00:40:47 10° N
Cosmos 2228 3.8 00:34:23 10° NNW 00:38:28 51° W 00:42:32 10° S
COSMO-SKYMED 1 4.1 00:36:03 10° N 00:39:48 35° WNW 00:43:32 10° SW
Cosmos 2237 Rocket 4.3 00:35:04 10° NW 00:39:48 28° WSW 00:44:32 10° SSW
Cosmos 1536 Rocket 3.8 00:36:39 10° SSE 00:46:03 - NNE 00:40:17 43° ESE
SeaSat 1 4.1 00:37:42 10° S 00:42:06 34° WSW 00:46:32 10° NW
Terra 4.0 00:45:35 12° NNE 00:45:35 12° NNE 00:46:09 10° NNE
Cosmos 2082 3.6 00:43:14 10° S 00:48:51 63° ESE 00:52:38 21° NE
CZ-4 R/B 3.4 00:52:36 15° N 00:52:36 15° N 00:53:21 10° N
Meteor 1-31 Rocket 4.5 00:56:03 19° N 00:56:03 19° N 00:57:10 10° N
SJ-6B 3.2 00:52:19 13° S 00:55:18 53° W 00:58:41 10° NNW
USA 267 4.4 00:57:49 16° NE 01:02:11 35° NNW 01:07:58 10° W
Cosmos 2227 Rocket 3.7 00:57:19 10° WSW 01:02:25 34° NW 01:07:33 10° N
Cosmos 1544 Rocket 4.2 01:01:43 10° NNW 01:05:58 54° W 01:10:13 10° S
TSX-5 4.2 01:01:21 10° NNW 01:06:08 68° WSW 01:06:48 57° SSW
Feng Yun 1-1 Rocket 4.4 01:07:46 55° E 01:08:01 55° ENE 01:13:47 10° N
Cosmos 1538 Rocket 3.9 01:02:50 10° SSW 01:08:10 76° ESE 01:09:41 48° NE
SL-16 R/B 2.7 01:02:54 10° NNW 01:08:28 58° WSW 01:13:16 14° S
Helios 1A Rocket 3.9 01:12:52 35° W 01:12:52 35° W 01:15:26 10° SW
CSL-04 Debris 4.1 01:21:22 57° S 01:22:33 85° WSW 01:28:01 10° NNW
Tiangong 0.7 01:21:54 10° W 01:22:55 18° WSW 01:22:55 18° WSW
RESURS DK-1 4.3 01:22:52 10° NNW 01:24:15 21° NNW 01:24:15 21° NNW
CZ-4B R/B 4.1 01:31:04 35° N 01:31:04 35° N 01:34:09 10° N
CSL-04 Rocket 3.8 01:27:39 48° SSW 01:29:04 69° WSW 01:34:19 10° NNW
CZ-4B DEB 4.2 01:33:49 79° NW 01:33:49 79° NW 01:38:59 10° NNW
Cosmos 1943 3.7 01:46:55 10° NNW 01:51:35 57° WNW 01:51:35 57° WNW
SPOT 5 4.3 01:59:32 34° WSW 01:59:53 34° W 02:04:32 10° NNW
Cosmos 1980 Rocket 4.3 08:37:31 21° E 08:37:31 21° E 08:40:33 10° NE
COSMOS 2455 3.5 09:13:53 50° NE 09:13:53 50° NE 09:18:21 10° NE
Cosmos 2263 Rocket 3.0 09:16:58 47° ENE 09:16:58 47° ENE 09:22:21 10° SE
Cosmos 2344 3.9 09:23:18 66° SW 09:23:18 66° SW 09:34:33 10° SSE
CZ-2C R/B 3.6 09:25:01 10° NNE 09:27:58 36° NE 09:27:58 36° NE
Cosmos 1503 Rocket 4.1 09:46:30 72° E 09:46:30 72° E 09:51:39 10° NNE
Cosmos 1939 Rocket 4.3 09:50:20 10° NNE 09:52:31 31° NE 09:52:31 31° NE
H-2A R/B 4.4 09:50:40 10° NNW 09:50:49 11° NNW 09:50:49 11° NNW
Cosmos 2227 Rocket 3.8 09:58:21 21° S 09:58:21 21° S 10:00:13 10° S
Cosmos 1025 Rocket 3.5 09:55:19 58° ENE 09:55:32 59° E 09:59:48 10° SSE
Cosmos 2292 Rocket 4.3 09:56:43 10° NNW 10:02:14 62° W 10:09:00 10° S
Cosmos 1777 Rocket 4.0 10:04:54 61° NNW 10:04:54 61° NNW 10:09:32 10° NNE
Cosmos 1486 Rocket 4.5 10:12:49 43° NW 10:12:49 43° NW 10:17:06 10° N
Cosmos 783 Rocket 4.4 10:09:36 16° NNW 10:13:45 84° ENE 10:18:55 10° SSE
Cosmos 2123 Rocket 4.0 10:09:36 10° NNW 10:15:38 54° W 10:21:37 10° SSW
Cosmos 2221 Rocket 3.6 10:14:58 10° N 10:19:30 82° E 10:24:00 10° S
Cosmos 1980 Rocket 2.2 10:19:17 51° W 10:19:48 52° WNW 10:25:17 10° NNE
SJ-11-01 4.1 10:17:24 10° N 10:22:05 82° WNW 10:24:56 24° SSW
PAYLOAD A 4.2 10:18:55 10° N 10:24:07 55° WNW 10:25:33 42° WSW
Cosmos 1844 Rocket 4.2 10:19:27 10° N 10:24:37 35° NE 10:29:43 10° ESE
NOSS 3-1 (C) 3.1 10:25:31 46° WNW 10:25:57 48° NW 10:31:21 10° NNE
Cosmos 1300 Rocket 4.1 10:22:14 10° S 10:26:32 59° E 10:30:53 10° NNE
ARGOS 4.4 10:23:15 10° N 10:26:08 24° NW 10:26:08 24° NW
Cosmos 1697 Rocket 4.0 10:30:03 23° NW 10:30:03 23° NW 10:33:51 10° N
NOSS 3-1 (A) 2.8 10:32:51 27° SSW 10:35:24 84° SE 10:40:52 10° NE
Cosmos 1934 Rocket 4.3 10:33:40 33° WSW 10:35:32 41° WNW 10:41:24 10° N
NOAA 12 4.2 10:31:04 10° NNE 10:36:22 79° ESE 10:41:41 10° S
Cosmos 1535 Rocket 4.5 10:32:46 10° SSW 10:39:04 62° W 10:45:23 10° N
Cosmos 990 Rocket 4.0 10:37:31 23° SW 10:40:44 61° WNW 10:45:57 10° NNE
USA 215 4.1 10:35:57 10° E 10:42:07 45° NNE 10:47:58 11° NW
Cosmos 1354 Rocket 4.1 10:40:31 26° SW 10:43:16 54° WNW 10:48:26 10° NNE
Cosmos 1447 Rocket 4.4 10:38:06 10° N 10:44:23 86° W 10:50:41 10° S
Exosat Rocket 4.4 10:46:01 27° WSW 10:46:01 27° WSW 10:49:25 10° SSW
Cosmos 2360 Rocket 4.1 10:44:57 10° SSE 10:49:46 31° ESE 10:54:38 10° NE
Cosmos 2237 4.1 10:46:13 10° SSW 10:51:53 72° WNW 10:57:36 10° NNE
ISS -3.5 10:51:33 44° WNW 10:52:09 52° NNW 10:55:25 10° NE
Cosmos 1153 Rocket 4.5 10:46:14 10° S 10:52:35 89° W 10:58:52 10° N
SL-4 R/B 3.7 10:55:51 16° SSW 10:55:51 16° SSW 10:57:29 10° S
COSMOS 2455 4.0 10:57:01 22° WNW 10:58:49 25° NW 11:03:43 10° NNE
Cosmos 2219 3.5 10:54:09 10° NW 10:59:33 45° WSW 11:04:53 10° S
Cosmos 1602 2.7 10:57:37 10° N 11:00:24 89° E 11:03:09 10° S
Cosmos 2263 Rocket 3.0 10:58:45 23° WNW 11:00:32 27° WSW 11:05:09 10° SSW
Cosmos 1869 2.8 10:58:03 10° SSW 11:01:34 70° W 11:05:04 10° N
Cosmos 1605 Rocket 4.3 10:57:35 10° SSW 11:03:38 44° WNW 11:09:41 10° N
Cosmos 1400 Rocket 3.0 11:00:09 10° SSW 11:03:46 41° WNW 11:07:24 10° N
Cosmos 2227 4.4 10:59:43 10° NNW 11:05:24 76° ENE 11:11:04 10° SSE
CZ-2C R/B 3.8 11:04:12 10° NNW 11:07:12 18° WNW 11:07:12 18° WNW
Meteor 2-17 Rocket 4.4 11:03:17 10° N 11:09:23 89° E 11:15:29 10° S
CZ-4 R/B 3.9 11:07:01 10° N 11:11:59 69° WNW 11:16:53 10° SSW
Cosmos 1459 Rocket 4.1 11:08:17 10° S 11:14:18 78° E 11:20:25 10° N
H-2A R/B 4.3 11:13:42 10° NNW 11:16:50 25° WNW 11:19:21 13° WSW
BREEZE-M R/B 3.3 11:15:56 16° NW 11:17:26 26° N 11:19:33 10° ENE
Cosmos 1975 Rocket 2.9 11:13:10 10° NNW 11:17:28 77° W 11:21:45 10° S
Cosmos 1461 3.2 11:14:54 10° NNW 11:18:34 55° NE 11:22:06 10° SE
EO 1 Delta rocket 4.4 11:13:15 10° N 11:19:57 88° WNW 11:25:12 10° SSW
SKYMED 2 4.2 11:17:03 10° SSW 11:20:57 33° W 11:24:54 10° NNW
Cosmos 1782 Rocket 4.0 11:18:58 10° SSW 11:23:07 40° WNW 11:27:18 10° N
Cosmos 2082 4.3 11:20:28 10° NW 11:25:31 34° WSW 11:30:31 10° SSW
IRS-1D 3.9 11:22:49 10° N 11:27:38 41° WNW 11:32:21 10° SW
Cosmos 1346 Rocket 2.7 11:24:05 10° NNW 11:27:39 49° W 11:31:12 10° S
Cosmos 2058 3.0 11:24:17 10° N 11:28:12 73° E 11:32:07 10° SSE
COSMO-SKYMED 1 2.7 11:25:39 10° S 11:29:34 44° W 11:33:31 10° NNW
Cosmos 1484 Rocket 2.6 11:26:49 10° NNE 11:30:19 81° ESE 11:33:47 10° S
SL-16 R/B 2.2 11:28:50 10° SW 11:34:26 61° WNW 11:40:04 10° NNE
Cosmos 1538 Rocket 4.2 11:29:45 10° NNW 11:34:52 51° WSW 11:39:54 10° S
Cosmos 2016 Rocket 4.3 11:30:47 10° S 11:36:49 73° E 11:42:57 10° NNE
Cosmos 1844 3.7 11:32:45 10° NNW 11:38:22 73° WSW 11:44:00 10° SSE
Aureole 1 Rocket 4.4 11:32:11 10° SW 11:39:01 45° WNW 11:44:58 10° N
Helios 1A Rocket 2.3 11:38:25 10° SSE 11:41:41 87° ENE 11:44:57 10° NNW
Cosmos 2233 Rocket 4.5 11:43:06 10° S 11:49:09 67° E 11:55:19 10° NNE
Cosmos 2333 Rocket 2.4 11:48:24 10° SW 11:54:02 55° WNW 11:59:41 10° NNE
